contact:dominique.lefevre@mio.osupytheas.fr, maurice.libes@osupytheas.fr, didier.mallarino@osupytheas.fr
Project:EMSO http://www.emso-fr.org/EMSO-France
Depth: 2436.0 m
Title:EMSO Ligure Ouest : Data MII capteur AQUADOPP
Date,Latitude,Longitude,X_East,Y_North,Z_Up,Amplitude_X,Amplitude_Y,Amplitude_Z,Batterie,SoundSpeed,Heading,Pitch,Roll,Pressure,TIS,Speed,Direction
, degrees North, degrees East, m.s-1, m.s-1,m.s-1, 1, 1, 1, Volt, m.s-1, degree, degree, degree, dbar, degree_C, m.s-1, degree
2020-08-02T00:04:03,42.805,6.029,-0.014,-0.002,0.009,104.0,106.0,101.0,13.4,1505.3,326.6,-0.7,1.8,2470.351,13.31,0.014,261.9
2020-08-02T00:07:03,42.805,6.029,-0.016,-0.018,-0.037,103.0,109.0,100.0,13.4,1505.3,326.1,-0.7,1.9,2470.353,13.32,0.024,221.6
2020-08-02T00:10:03,42.805,6.029,-0.018,-0.012,-0.02,104.0,108.0,100.0,13.4,1505.3,324.5,-0.8,1.8,2470.299,13.32,0.021,236.3
2020-08-02T00:13:03,42.805,6.029,-0.015,-0.001,-0.003,102.0,108.0,101.0,13.3,1505.3,326.5,-0.7,1.8,2470.293,13.33,0.015,266.2
2020-08-02T00:16:03,42.805,6.029,-0.001,-0.006,0.037,103.0,106.0,101.0,13.4,1505.3,324.6,-0.7,1.9,2470.247,13.33,0.006,189.5
2020-08-02T00:19:03,42.805,6.029,-0.012,-0.007,-0.007,104.0,106.0,101.0,13.3,1505.3,328.5,-0.7,1.9,2470.266,13.33,0.013,239.7
2020-08-02T00:22:03,42.805,6.029,-0.007,-0.01,0.011,103.0,110.0,100.0,13.4,1505.3,326.4,-0.7,1.9,2470.338,13.33,0.012,215.0
2020-08-02T00:25:03,42.805,6.029,-0.024,-0.012,0.005,105.0,108.0,101.0,13.3,1505.3,324.8,-0.7,1.8,2470.304,13.33,0.026,243.4
2020-08-02T00:28:03,42.805,6.029,-0.032,0.011,-0.032,102.0,108.0,100.0,13.4,1505.3,326.9,-0.7,1.8,2470.3,13.33,0.033,289.0
2020-08-02T00:31:03,42.805,6.029,-0.03,-0.014,-0.003,104.0,109.0,100.0,13.4,1505.3,325.0,-0.7,1.8,2470.285,13.33,0.033,245.0
2020-08-02T00:34:03,42.805,6.029,0.017,-0.005,0.017,104.0,108.0,100.0,13.3,1505.3,325.2,-0.7,1.9,2470.314,13.33,0.017,106.4
2020-08-02T00:37:03,42.805,6.029,0.008,-0.023,-0.003,103.0,105.0,101.0,13.4,1505.3,327.0,-0.7,1.9,2470.261,13.33,0.024,160.8
2020-08-02T00:40:03,42.805,6.029,-0.003,0.002,0.021,102.0,105.0,101.0,13.4,1505.3,323.5,-0.7,1.8,2470.28,13.33,0.003,303.7
2020-08-02T00:43:03,42.805,6.029,-0.011,-0.017,-0.006,104.0,107.0,100.0,13.4,1505.3,326.0,-0.7,1.8,2470.296,13.33,0.02,212.9
2020-08-02T00:46:03,42.805,6.029,-0.057,0.009,-0.014,104.0,106.0,103.0,13.3,1505.3,326.4,-0.7,1.8,2470.253,13.33,0.057,279.0
2020-08-02T00:49:03,42.805,6.029,0.001,0.005,0.027,104.0,105.0,101.0,13.4,1505.3,327.3,-0.7,1.8,2470.311,13.33,0.005,11.3
2020-08-02T00:52:03,42.805,6.029,0.013,-0.003,0.027,103.0,108.0,101.0,13.4,1505.3,326.2,-0.7,1.8,2470.256,13.33,0.013,103.0
2020-08-02T00:55:03,42.805,6.029,-0.027,0.006,-0.006,104.0,106.0,101.0,13.3,1505.3,323.7,-0.7,1.9,2470.29,13.33,0.027,282.5
2020-08-02T00:58:03,42.805,6.029,0.014,-0.006,0.021,104.0,105.0,100.0,13.4,1505.3,324.8,-0.7,1.8,2470.271,13.33,0.015,113.2
2020-08-02T01:04:03,42.805,6.029,-0.001,-0.004,-0.017,104.0,108.0,102.0,13.4,1505.3,323.0,-0.7,1.8,2470.317,13.31,0.004,194.0
2020-08-02T01:07:03,42.805,6.029,-0.011,-0.031,-0.032,103.0,106.0,99.0,13.4,1505.3,324.4,-0.7,1.8,2470.315,13.32,0.032,199.5
2020-08-02T01:10:03,42.805,6.029,0.02,-0.008,0.025,103.0,105.0,100.0,13.4,1505.3,323.3,-0.7,1.8,2470.301,13.32,0.021,111.8
2020-08-02T01:13:03,42.805,6.029,-0.03,-0.011,-0.029,102.0,106.0,100.0,13.4,1505.3,325.5,-0.7,1.8,2470.331,13.33,0.031,249.9
2020-08-02T01:16:03,42.805,6.029,-0.022,-0.006,-0.015,103.0,106.0,100.0,13.4,1505.3,328.2,-0.7,1.9,2470.306,13.33,0.022,254.7
2020-08-02T01:19:03,42.805,6.029,-0.036,-0.005,-0.019,102.0,107.0,100.0,13.4,1505.3,323.6,-0.7,1.9,2470.313,13.33,0.036,262.1
2020-08-02T01:22:03,42.805,6.029,-0.035,-0.002,-0.002,104.0,105.0,100.0,13.4,1505.3,326.7,-0.7,1.9,2470.27,13.33,0.035,266.7
2020-08-02T01:25:03,42.805,6.029,0.008,-0.002,0.033,103.0,105.0,100.0,13.3,1505.3,325.1,-0.7,1.8,2470.266,13.33,0.008,104.0
2020-08-02T01:28:03,42.805,6.029,0.027,-0.004,0.052,102.0,106.0,100.0,13.3,1505.3,328.6,-0.7,1.8,2470.286,13.33,0.027,98.4
2020-08-02T01:31:03,42.805,6.029,-0.019,-0.004,-0.003,102.0,105.0,99.0,13.4,1505.3,324.0,-0.7,1.8,2470.29,13.33,0.019,258.1
2020-08-02T01:34:03,42.805,6.029,0.0,-0.022,0.012,104.0,104.0,100.0,13.3,1505.3,324.0,-0.7,1.8,2470.281,13.33,0.022,180.0
2020-08-02T01:37:03,42.805,6.029,-0.011,-0.028,-0.012,101.0,106.0,100.0,13.4,1505.3,326.6,-0.7,1.8,2470.298,13.33,0.03,201.4
2020-08-02T01:40:03,42.805,6.029,-0.023,-0.017,-0.001,102.0,107.0,102.0,13.4,1505.3,328.4,-0.7,1.8,2470.294,13.33,0.028,233.5
2020-08-02T01:43:03,42.805,6.029,0.025,-0.019,0.053,104.0,107.0,102.0,13.3,1505.3,324.6,-0.7,1.8,2470.306,13.33,0.031,127.2
2020-08-02T01:46:03,42.805,6.029,0.001,0.009,0.042,103.0,106.0,101.0,13.4,1505.3,326.7,-0.7,1.8,2470.299,13.33,0.009,6.3
2020-08-02T01:49:03,42.805,6.029,-0.023,-0.011,0.003,103.0,105.0,100.0,13.3,1505.3,324.1,-0.7,1.8,2470.282,13.33,0.025,244.4
2020-08-02T01:52:03,42.805,6.029,0.016,-0.012,0.014,103.0,105.0,102.0,13.3,1505.3,326.9,-0.7,1.8,2470.283,13.33,0.02,126.9
2020-08-02T01:55:03,42.805,6.029,0.002,0.005,0.04,101.0,106.0,102.0,13.4,1505.3,327.7,-0.7,1.8,2470.268,13.33,0.005,21.8
2020-08-02T01:58:03,42.805,6.029,-0.015,-0.014,-0.038,103.0,104.0,101.0,13.4,1505.3,322.8,-0.7,1.8,2470.265,13.33,0.02,227.0
2020-08-02T02:04:03,42.805,6.029,-0.009,-0.019,-0.026,103.0,105.0,100.0,13.4,1505.3,322.9,-0.7,1.8,2470.331,13.31,0.021,205.3
2020-08-02T02:07:03,42.805,6.029,-0.022,0.0,-0.019,103.0,104.0,100.0,13.4,1505.3,328.7,-0.7,1.8,2470.326,13.32,0.022,270.0
2020-08-02T02:10:03,42.805,6.029,0.011,-0.013,-0.014,102.0,105.0,102.0,13.4,1505.3,326.3,-0.7,1.8,2470.323,13.33,0.017,139.8
2020-08-02T02:13:03,42.805,6.029,0.028,-0.005,0.02,102.0,106.0,101.0,13.4,1505.3,327.1,-0.7,1.9,2470.326,13.33,0.028,100.1
2020-08-02T02:16:03,42.805,6.029,0.016,-0.009,0.036,102.0,105.0,101.0,13.4,1505.3,323.7,-0.7,1.8,2470.292,13.33,0.018,119.4
2020-08-02T02:19:03,42.805,6.029,-0.009,-0.004,-0.022,103.0,105.0,100.0,13.4,1505.3,326.5,-0.7,1.8,2470.277,13.33,0.009,246.0
2020-08-02T02:22:03,42.805,6.029,0.017,-0.018,-0.005,103.0,106.0,101.0,13.4,1505.3,326.4,-0.7,1.9,2470.289,13.33,0.024,136.6
2020-08-02T02:25:03,42.805,6.029,-0.015,0.006,0.01,103.0,104.0,100.0,13.4,1505.3,327.2,-0.7,1.8,2470.261,13.33,0.016,291.8
2020-08-02T02:28:03,42.805,6.029,-0.015,-0.01,-0.02,103.0,104.0,102.0,13.4,1505.3,323.2,-0.7,1.9,2470.264,13.33,0.018,236.3
2020-08-02T02:31:03,42.805,6.029,-0.017,-0.011,-0.037,104.0,105.0,100.0,13.4,1505.3,325.8,-0.7,1.8,2470.263,13.33,0.02,237.1
2020-08-02T02:34:03,42.805,6.029,0.021,-0.009,-0.012,103.0,102.0,102.0,13.4,1505.3,325.0,-0.7,1.8,2470.241,13.33,0.022,113.2
2020-08-02T02:37:03,42.805,6.029,-0.014,-0.019,-0.002,103.0,104.0,100.0,13.3,1505.3,326.1,-0.7,1.9,2470.265,13.33,0.023,216.4
2020-08-02T02:40:03,42.805,6.029,0.005,-0.025,-0.016,104.0,104.0,101.0,13.4,1505.3,326.5,-0.7,1.8,2470.265,13.33,0.025,168.7
2020-08-02T02:43:03,42.805,6.029,-0.033,-0.015,-0.039,104.0,106.0,101.0,13.3,1505.3,324.1,-0.7,1.8,2470.285,13.33,0.036,245.6
2020-08-02T02:46:03,42.805,6.029,-0.025,-0.025,-0.01,105.0,104.0,100.0,13.4,1505.3,326.7,-0.7,1.9,2470.292,13.33,0.035,225.0
2020-08-02T02:49:03,42.805,6.029,-0.013,-0.014,0.009,104.0,105.0,102.0,13.4,1505.3,326.6,-0.7,1.8,2470.309,13.33,0.019,222.9
2020-08-02T02:52:03,42.805,6.029,-0.03,-0.025,-0.073,104.0,104.0,101.0,13.4,1505.3,324.1,-0.7,1.8,2470.329,13.33,0.039,230.2
2020-08-02T02:55:03,42.805,6.029,0.0,-0.022,0.007,103.0,106.0,101.0,13.3,1505.3,323.8,-0.7,1.9,2470.321,13.33,0.022,180.0
2020-08-02T02:58:03,42.805,6.029,-0.003,-0.03,0.008,103.0,106.0,100.0,13.3,1505.3,324.2,-0.7,1.8,2470.311,13.33,0.03,185.7
2020-08-02T03:04:03,42.805,6.029,0.007,-0.028,0.015,103.0,104.0,101.0,13.4,1505.3,325.4,-0.8,1.8,2470.325,13.31,0.028,166.0
2020-08-02T03:07:03,42.805,6.029,-0.016,-0.016,-0.025,102.0,105.0,101.0,13.4,1505.3,324.7,-0.7,1.8,2470.32,13.32,0.022,225.0
2020-08-02T03:10:03,42.805,6.029,-0.027,-0.025,-0.014,104.0,106.0,101.0,13.4,1505.3,326.5,-0.7,1.8,2470.356,13.33,0.036,227.2
2020-08-02T03:13:03,42.805,6.029,0.023,-0.021,0.016,104.0,103.0,101.0,13.4,1505.3,325.3,-0.7,1.8,2470.324,13.33,0.031,132.4
2020-08-02T03:16:03,42.805,6.029,-0.031,-0.029,-0.04,103.0,104.0,101.0,13.4,1505.3,328.0,-0.7,1.8,2470.335,13.33,0.042,226.9
2020-08-02T03:19:03,42.805,6.029,-0.007,-0.008,-0.006,103.0,104.0,101.0,13.3,1505.3,323.7,-0.7,1.8,2470.295,13.33,0.01,221.2
2020-08-02T03:22:03,42.805,6.029,0.005,-0.023,-0.001,102.0,105.0,101.0,13.4,1505.3,326.8,-0.7,1.8,2470.326,13.33,0.023,167.7
2020-08-02T03:25:03,42.805,6.029,-0.042,-0.019,-0.05,104.0,106.0,101.0,13.3,1505.3,325.1,-0.7,1.8,2470.301,13.33,0.046,245.7
2020-08-02T03:28:03,42.805,6.029,-0.019,-0.008,-0.027,103.0,104.0,100.0,13.4,1505.3,325.4,-0.7,1.8,2470.299,13.33,0.02,247.2
2020-08-02T03:31:03,42.805,6.029,-0.026,-0.032,-0.013,103.0,103.0,99.0,13.4,1505.3,323.7,-0.7,1.8,2470.35,13.33,0.041,219.1
2020-08-02T03:34:03,42.805,6.029,0.003,-0.012,0.044,102.0,105.0,101.0,13.4,1505.3,323.9,-0.7,1.8,2470.344,13.33,0.012,166.0
2020-08-02T03:37:03,42.805,6.029,0.0,0.003,0.025,105.0,103.0,101.0,13.4,1505.3,324.5,-0.7,1.8,2470.287,13.33,0.003,0.0
2020-08-02T03:40:03,42.805,6.029,0.022,-0.011,0.021,103.0,104.0,101.0,13.4,1505.3,324.5,-0.7,1.8,2470.293,13.33,0.024,116.6
2020-08-02T03:43:03,42.805,6.029,0.013,-0.025,0.004,103.0,104.0,101.0,13.4,1505.3,324.4,-0.7,1.8,2470.313,13.33,0.028,152.5
2020-08-02T03:46:03,42.805,6.029,-0.009,-0.015,-0.02,103.0,105.0,101.0,13.4,1505.3,326.5,-0.7,1.8,2470.334,13.33,0.017,211.0
2020-08-02T03:49:03,42.805,6.029,0.016,-0.037,-0.019,104.0,104.0,101.0,13.4,1505.3,323.3,-0.8,1.9,2470.307,13.33,0.04,156.6
2020-08-02T03:52:03,42.805,6.029,0.024,-0.028,0.011,103.0,105.0,100.0,13.4,1505.3,323.9,-0.7,1.8,2470.343,13.33,0.036,139.4
2020-08-02T03:55:03,42.805,6.029,-0.011,-0.018,0.001,103.0,106.0,100.0,13.4,1505.3,324.3,-0.7,1.8,2470.318,13.33,0.021,211.4
2020-08-02T03:58:03,42.805,6.029,0.007,-0.024,0.003,103.0,105.0,101.0,13.3,1505.3,323.9,-0.7,1.9,2470.335,13.33,0.025,163.7
2020-08-02T04:04:03,42.805,6.029,0.01,-0.01,0.021,106.0,105.0,101.0,13.4,1505.3,326.8,-0.7,1.8,2470.369,13.31,0.014,135.0
2020-08-02T04:07:03,42.805,6.029,-0.027,-0.029,-0.038,104.0,105.0,100.0,13.4,1505.3,325.9,-0.7,1.9,2470.358,13.32,0.039,223.0
2020-08-02T04:10:03,42.805,6.029,0.0,-0.019,-0.003,105.0,105.0,101.0,13.4,1505.3,323.5,-0.7,1.8,2470.375,13.32,0.019,180.0
2020-08-02T04:13:03,42.805,6.029,0.0,-0.021,0.011,103.0,106.0,101.0,13.4,1505.3,324.3,-0.7,1.8,2470.362,13.33,0.021,180.0
2020-08-02T04:16:03,42.805,6.029,-0.005,-0.026,0.011,103.0,106.0,101.0,13.4,1505.3,325.6,-0.7,1.8,2470.411,13.33,0.026,190.9
2020-08-02T04:19:03,42.805,6.029,-0.013,-0.023,0.009,103.0,105.0,102.0,13.4,1505.3,323.3,-0.7,1.8,2470.373,13.33,0.026,209.5
2020-08-02T04:22:03,42.805,6.029,-0.019,-0.031,-0.028,103.0,104.0,101.0,13.4,1505.3,328.0,-0.7,1.8,2470.339,13.33,0.036,211.5
2020-08-02T04:25:03,42.805,6.029,-0.026,-0.031,-0.035,102.0,104.0,100.0,13.4,1505.3,326.8,-0.7,1.8,2470.358,13.33,0.04,220.0
2020-08-02T04:28:03,42.805,6.029,-0.039,-0.018,-0.043,104.0,104.0,102.0,13.3,1505.3,326.7,-0.7,1.8,2470.328,13.33,0.042,245.2
2020-08-02T04:31:03,42.805,6.029,0.004,-0.028,0.005,102.0,104.0,101.0,13.4,1505.3,324.2,-0.7,1.8,2470.326,13.33,0.028,171.9
2020-08-02T04:34:03,42.805,6.029,-0.008,-0.014,0.018,102.0,105.0,101.0,13.4,1505.3,323.8,-0.7,1.8,2470.371,13.33,0.016,209.7
2020-08-02T04:37:03,42.805,6.029,-0.032,-0.023,-0.016,104.0,104.0,101.0,13.4,1505.3,325.5,-0.7,1.8,2470.369,13.33,0.039,234.3
2020-08-02T04:40:03,42.805,6.029,-0.029,-0.018,0.009,104.0,105.0,101.0,13.4,1505.3,324.8,-0.7,1.8,2470.34,13.33,0.034,238.2
2020-08-02T04:43:03,42.805,6.029,-0.011,-0.03,-0.01,103.0,104.0,101.0,13.4,1505.3,327.7,-0.7,1.8,2470.373,13.33,0.031,200.1
2020-08-02T04:46:03,42.805,6.029,-0.034,-0.024,-0.025,104.0,104.0,101.0,13.4,1505.3,326.4,-0.6,1.8,2470.363,13.33,0.041,234.8
2020-08-02T04:49:03,42.805,6.029,-0.017,-0.018,-0.027,105.0,104.0,101.0,13.3,1505.3,328.5,-0.7,1.8,2470.347,13.33,0.024,223.4
2020-08-02T04:52:03,42.805,6.029,-0.016,-0.02,-0.006,104.0,104.0,102.0,13.3,1505.3,325.4,-0.7,1.8,2470.361,13.33,0.025,218.7
2020-08-02T04:55:03,42.805,6.029,-0.025,-0.019,0.005,103.0,104.0,101.0,13.3,1505.3,327.1,-0.7,1.8,2470.375,13.33,0.031,232.8
2020-08-02T04:58:03,42.805,6.029,-0.016,-0.021,0.019,103.0,106.0,101.0,13.4,1505.3,325.8,-0.7,1.8,2470.403,13.33,0.026,217.3
2020-08-02T05:04:03,42.805,6.029,-0.004,-0.031,-0.003,105.0,105.0,101.0,13.4,1505.3,322.8,-0.7,1.8,2470.386,13.31,0.031,187.3
2020-08-02T05:07:03,42.805,6.029,-0.009,-0.02,0.02,105.0,105.0,101.0,13.4,1505.3,325.9,-0.7,1.8,2470.401,13.32,0.021,204.2
2020-08-02T05:10:03,42.805,6.029,0.002,-0.008,0.012,106.0,104.0,101.0,13.4,1505.3,324.0,-0.7,1.8,2470.38,13.32,0.008,166.0
2020-08-02T05:13:03,42.805,6.029,0.001,-0.041,-0.007,104.0,105.0,101.0,13.3,1505.3,328.0,-0.7,1.8,2470.413,13.32,0.041,178.6
2020-08-02T05:16:03,42.805,6.029,0.009,-0.018,-0.027,104.0,104.0,101.0,13.3,1505.3,325.0,-0.7,1.8,2470.378,13.33,0.02,153.4
2020-08-02T05:19:03,42.805,6.029,-0.009,-0.008,-0.011,104.0,104.0,102.0,13.4,1505.3,323.8,-0.7,1.8,2470.365,13.33,0.012,228.4
2020-08-02T05:22:03,42.805,6.029,-0.002,-0.042,0.01,103.0,105.0,101.0,13.4,1505.3,322.9,-0.7,1.8,2470.345,13.33,0.042,182.7
2020-08-02T05:25:03,42.805,6.029,-0.019,-0.013,-0.041,103.0,105.0,102.0,13.4,1505.3,325.3,-0.7,1.8,2470.419,13.33,0.023,235.6
2020-08-02T05:28:03,42.805,6.029,-0.014,-0.024,-0.029,105.0,105.0,101.0,13.4,1505.3,328.2,-0.7,1.8,2470.375,13.33,0.027,210.3
2020-08-02T05:31:03,42.805,6.029,-0.003,-0.024,-0.003,103.0,104.0,101.0,13.4,1505.3,325.6,-0.7,1.8,2470.416,13.33,0.024,187.1
2020-08-02T05:34:03,42.805,6.029,0.0,-0.031,-0.025,104.0,105.0,101.0,13.4,1505.3,327.0,-0.7,1.8,2470.398,13.33,0.03,180.0
2020-08-02T05:37:03,42.805,6.029,0.007,-0.02,0.026,104.0,105.0,99.0,13.4,1505.3,327.9,-0.7,1.9,2470.425,13.33,0.021,160.7
2020-08-02T05:40:03,42.805,6.029,0.011,-0.029,0.004,103.0,105.0,102.0,13.3,1505.3,322.7,-0.7,1.9,2470.382,13.33,0.031,159.2
2020-08-02T05:43:03,42.805,6.029,0.011,-0.025,0.003,103.0,106.0,101.0,13.4,1505.3,327.0,-0.7,1.9,2470.414,13.33,0.027,156.3
2020-08-02T05:46:03,42.805,6.029,-0.027,-0.024,-0.02,104.0,105.0,101.0,13.3,1505.3,324.5,-0.7,1.8,2470.397,13.33,0.036,228.4
2020-08-02T05:49:03,42.805,6.029,-0.003,-0.037,-0.009,104.0,104.0,100.0,13.3,1505.3,326.1,-0.7,1.8,2470.387,13.33,0.037,184.6
2020-08-02T05:52:03,42.805,6.029,-0.01,-0.017,-0.017,104.0,105.0,100.0,13.4,1505.3,326.5,-0.7,1.8,2470.383,13.33,0.019,210.5
2020-08-02T05:55:03,42.805,6.029,-0.026,-0.033,-0.023,103.0,104.0,101.0,13.4,1505.3,327.5,-0.7,1.8,2470.401,13.33,0.042,218.2
2020-08-02T05:58:03,42.805,6.029,-0.002,-0.043,-0.005,105.0,104.0,101.0,13.4,1505.3,324.0,-0.7,1.8,2470.394,13.33,0.043,182.7
2020-08-02T06:04:03,42.805,6.029,-0.026,-0.027,-0.002,104.0,104.0,102.0,13.4,1505.3,324.9,-0.8,1.8,2470.414,13.31,0.037,223.9
2020-08-02T06:07:03,42.805,6.029,0.005,-0.017,0.016,103.0,105.0,102.0,13.4,1505.3,327.5,-0.7,1.8,2470.402,13.31,0.017,163.6
2020-08-02T06:10:03,42.805,6.029,-0.007,-0.035,0.005,103.0,105.0,101.0,13.4,1505.3,325.7,-0.7,1.8,2470.444,13.32,0.035,191.3
2020-08-02T06:13:03,42.805,6.029,-0.026,-0.03,-0.011,104.0,104.0,101.0,13.3,1505.3,324.2,-0.7,1.8,2470.413,13.32,0.039,220.9
2020-08-02T06:16:03,42.805,6.029,0.004,-0.019,0.005,104.0,105.0,102.0,13.4,1505.3,326.2,-0.7,1.8,2470.383,13.33,0.019,168.1
2020-08-02T06:19:03,42.805,6.029,0.016,-0.014,0.029,104.0,104.0,101.0,13.3,1505.3,324.4,-0.7,1.8,2470.419,13.33,0.021,131.2
2020-08-02T06:22:03,42.805,6.029,0.025,-0.05,-0.004,103.0,104.0,101.0,13.4,1505.3,326.9,-0.7,1.8,2470.44,13.33,0.055,153.4
2020-08-02T06:25:03,42.805,6.029,0.01,-0.027,0.019,105.0,104.0,102.0,13.4,1505.3,326.4,-0.7,1.8,2470.396,13.33,0.028,159.7
2020-08-02T06:28:03,42.805,6.029,-0.006,-0.031,0.01,104.0,106.0,101.0,13.3,1505.3,327.1,-0.7,1.8,2470.407,13.33,0.031,191.0
2020-08-02T06:31:03,42.805,6.029,0.01,-0.029,-0.012,104.0,106.0,100.0,13.4,1505.3,324.7,-0.7,1.9,2470.391,13.33,0.03,161.0
2020-08-02T06:34:03,42.805,6.029,-0.017,-0.014,-0.001,105.0,105.0,100.0,13.4,1505.3,323.5,-0.7,1.8,2470.389,13.33,0.022,230.5
2020-08-02T06:37:03,42.805,6.029,0.002,-0.007,-0.009,104.0,104.0,100.0,13.4,1505.3,324.3,-0.7,1.8,2470.373,13.33,0.007,164.1
2020-08-02T06:40:03,42.805,6.029,-0.009,-0.032,0.001,105.0,105.0,101.0,13.3,1505.3,323.8,-0.7,1.8,2470.391,13.33,0.033,195.7
2020-08-02T06:43:03,42.805,6.029,0.024,-0.015,-0.002,103.0,106.0,101.0,13.4,1505.3,325.1,-0.6,1.8,2470.404,13.33,0.028,122.0
2020-08-02T06:46:03,42.805,6.029,0.019,-0.01,0.014,105.0,106.0,102.0,13.4,1505.3,323.9,-0.7,1.8,2470.361,13.33,0.021,117.8
2020-08-02T06:49:03,42.805,6.029,-0.003,-0.033,-0.009,103.0,106.0,102.0,13.4,1505.3,324.3,-0.7,1.8,2470.409,13.33,0.033,185.2
2020-08-02T06:52:03,42.805,6.029,0.018,-0.026,-0.004,104.0,106.0,102.0,13.4,1505.3,323.3,-0.7,1.9,2470.415,13.33,0.031,145.3
2020-08-02T06:55:03,42.805,6.029,-0.006,-0.025,0.007,104.0,106.0,102.0,13.4,1505.3,324.2,-0.7,1.8,2470.376,13.33,0.025,193.5
2020-08-02T06:58:03,42.805,6.029,0.007,-0.035,-0.001,105.0,104.0,101.0,13.3,1505.3,323.6,-0.7,1.9,2470.348,13.33,0.035,168.7
2020-08-02T07:04:03,42.805,6.029,0.008,-0.023,0.008,105.0,106.0,102.0,13.4,1505.3,326.0,-0.8,1.8,2470.421,13.31,0.024,160.8
2020-08-02T07:07:03,42.805,6.029,-0.011,-0.016,-0.027,104.0,106.0,101.0,13.4,1505.3,326.7,-0.7,1.8,2470.396,13.31,0.019,214.5
2020-08-02T07:10:03,42.805,6.029,-0.001,-0.018,-0.009,104.0,105.0,101.0,13.4,1505.3,324.2,-0.7,1.8,2470.393,13.32,0.018,183.2
2020-08-02T07:13:03,42.805,6.029,-0.007,-0.028,0.019,104.0,105.0,101.0,13.3,1505.3,327.6,-0.7,1.8,2470.414,13.32,0.028,194.0
2020-08-02T07:16:03,42.805,6.029,-0.006,-0.025,0.017,103.0,104.0,103.0,13.4,1505.3,326.3,-0.7,1.9,2470.373,13.32,0.025,193.5
2020-08-02T07:19:03,42.805,6.029,-0.015,-0.04,0.004,104.0,105.0,102.0,13.4,1505.3,327.5,-0.7,1.8,2470.362,13.33,0.042,200.6
2020-08-02T07:22:03,42.805,6.029,0.008,-0.033,-0.01,104.0,105.0,100.0,13.4,1505.3,325.3,-0.7,1.8,2470.39,13.33,0.033,166.4
2020-08-02T07:25:03,42.805,6.029,0.001,-0.056,-0.007,104.0,104.0,100.0,13.4,1505.3,328.2,-0.7,1.8,2470.386,13.33,0.056,179.0
2020-08-02T07:28:03,42.805,6.029,-0.017,-0.035,0.0,104.0,105.0,100.0,13.3,1505.3,325.8,-0.7,1.9,2470.346,13.33,0.038,205.9
2020-08-02T07:31:03,42.805,6.029,-0.025,-0.013,0.0,104.0,105.0,101.0,13.4,1505.3,326.4,-0.7,1.8,2470.411,13.33,0.028,242.5
2020-08-02T07:34:03,42.805,6.029,-0.007,-0.016,-0.016,105.0,105.0,101.0,13.3,1505.3,323.5,-0.7,1.8,2470.36,13.33,0.017,203.6
2020-08-02T07:37:03,42.805,6.029,-0.012,-0.027,-0.006,105.0,106.0,100.0,13.4,1505.3,326.1,-0.7,1.9,2470.414,13.33,0.029,204.0
2020-08-02T07:40:03,42.805,6.029,0.008,-0.028,0.019,104.0,105.0,100.0,13.4,1505.3,325.0,-0.7,1.8,2470.344,13.33,0.029,164.1
2020-08-02T07:43:03,42.805,6.029,0.008,-0.031,-0.029,104.0,105.0,101.0,13.3,1505.3,326.6,-0.7,1.9,2470.356,13.33,0.032,165.5
2020-08-02T07:46:03,42.805,6.029,-0.006,-0.028,-0.022,104.0,105.0,101.0,13.4,1505.3,327.1,-0.7,1.8,2470.359,13.33,0.028,192.1
2020-08-02T07:49:03,42.805,6.029,0.007,-0.009,0.018,103.0,106.0,102.0,13.3,1505.3,324.8,-0.7,1.8,2470.422,13.33,0.011,142.1
2020-08-02T07:52:03,42.805,6.029,-0.012,-0.017,0.027,104.0,104.0,102.0,13.4,1505.3,325.6,-0.6,1.8,2470.39,13.33,0.02,215.2
2020-08-02T07:55:03,42.805,6.029,-0.004,-0.022,0.008,105.0,106.0,100.0,13.4,1505.3,322.9,-0.7,1.9,2470.334,13.33,0.022,190.3
2020-08-02T07:58:03,42.805,6.029,0.005,-0.025,0.018,103.0,105.0,101.0,13.4,1505.3,326.6,-0.7,1.8,2470.345,13.33,0.025,168.7
2020-08-02T08:04:03,42.805,6.029,-0.025,-0.012,-0.008,103.0,105.0,101.0,13.3,1505.3,325.5,-0.7,1.8,2470.393,13.31,0.027,244.4
2020-08-02T08:07:03,42.805,6.029,-0.02,-0.016,0.007,105.0,105.0,101.0,13.4,1505.3,328.0,-0.7,1.8,2470.333,13.32,0.025,231.3
2020-08-02T08:10:03,42.805,6.029,0.0,-0.028,-0.018,104.0,105.0,101.0,13.4,1505.3,324.0,-0.7,1.8,2470.375,13.32,0.028,180.0
2020-08-02T08:13:03,42.805,6.029,-0.027,-0.031,0.006,104.0,105.0,102.0,13.3,1505.3,324.5,-0.7,1.9,2470.34,13.32,0.041,221.1
2020-08-02T08:16:03,42.805,6.029,0.009,-0.025,-0.004,104.0,105.0,101.0,13.3,1505.3,327.7,-0.7,1.9,2470.35,13.33,0.026,160.2
2020-08-02T08:19:03,42.805,6.029,-0.024,-0.033,-0.027,104.0,105.0,100.0,13.4,1505.3,322.8,-0.7,1.9,2470.326,13.33,0.04,216.0
2020-08-02T08:22:03,42.805,6.029,-0.028,-0.019,-0.033,102.0,104.0,101.0,13.4,1505.3,326.3,-0.7,1.8,2470.367,13.33,0.033,235.8
2020-08-02T08:25:03,42.805,6.029,-0.016,-0.023,0.0,103.0,104.0,101.0,13.4,1505.3,324.7,-0.7,1.8,2470.34,13.33,0.028,214.8
2020-08-02T08:28:03,42.805,6.029,0.008,-0.027,0.001,103.0,104.0,100.0,13.3,1505.3,326.3,-0.7,1.9,2470.321,13.33,0.028,163.5
2020-08-02T08:31:03,42.805,6.029,-0.022,-0.035,-0.037,103.0,104.0,101.0,13.3,1505.3,324.3,-0.7,1.8,2470.348,13.33,0.041,212.2
2020-08-02T08:34:03,42.805,6.029,-0.021,-0.033,-0.014,104.0,104.0,101.0,13.4,1505.3,327.7,-0.7,1.8,2470.325,13.33,0.039,212.5
2020-08-02T08:37:03,42.805,6.029,0.034,-0.029,0.003,103.0,104.0,100.0,13.4,1505.3,324.6,-0.7,1.8,2470.296,13.33,0.044,130.5
2020-08-02T08:40:03,42.805,6.029,0.005,-0.017,0.006,104.0,105.0,101.0,13.4,1505.3,325.2,-0.7,1.9,2470.302,13.33,0.017,163.6
2020-08-02T08:43:03,42.805,6.029,-0.031,-0.01,-0.01,103.0,104.0,101.0,13.3,1505.3,328.2,-0.7,1.8,2470.364,13.33,0.032,252.1
2020-08-02T08:46:03,42.805,6.029,-0.031,-0.038,-0.003,103.0,104.0,101.0,13.4,1505.3,327.9,-0.7,1.8,2470.351,13.33,0.049,219.2
2020-08-02T08:49:03,42.805,6.029,-0.021,-0.029,-0.016,103.0,103.0,102.0,13.4,1505.3,328.2,-0.7,1.8,2470.356,13.33,0.035,215.9
2020-08-02T08:52:03,42.805,6.029,-0.025,-0.027,-0.011,104.0,105.0,101.0,13.3,1505.3,325.0,-0.7,1.8,2470.33,13.33,0.036,222.8
2020-08-02T08:55:03,42.805,6.029,-0.033,-0.022,0.005,105.0,105.0,102.0,13.3,1505.3,326.9,-0.7,1.8,2470.34,13.33,0.039,236.3
2020-08-02T08:58:03,42.805,6.029,0.012,-0.041,-0.002,103.0,104.0,102.0,13.3,1505.3,324.2,-0.7,1.8,2470.342,13.33,0.042,163.7
2020-08-02T09:04:03,42.805,6.029,-0.008,-0.031,-0.015,104.0,106.0,100.0,13.4,1505.3,326.3,-0.7,1.8,2470.369,13.31,0.032,194.5
2020-08-02T09:07:03,42.805,6.029,-0.014,-0.041,-0.018,104.0,105.0,102.0,13.4,1505.3,324.7,-0.7,1.9,2470.361,13.31,0.043,198.9
2020-08-02T09:10:03,42.805,6.029,-0.029,-0.013,0.02,105.0,105.0,101.0,13.4,1505.3,325.4,-0.7,1.8,2470.321,13.32,0.031,245.9
2020-08-02T09:13:03,42.805,6.029,-0.032,-0.054,-0.031,104.0,105.0,101.0,13.3,1505.3,326.6,-0.7,1.8,2470.333,13.32,0.062,210.7
2020-08-02T09:16:03,42.805,6.029,-0.029,-0.034,-0.027,104.0,105.0,101.0,13.4,1505.3,325.3,-0.7,1.9,2470.331,13.33,0.044,220.5
2020-08-02T09:19:03,42.805,6.029,-0.052,-0.029,-0.054,104.0,106.0,101.0,13.4,1505.3,323.5,-0.7,1.8,2470.281,13.33,0.059,240.9
2020-08-02T09:22:03,42.805,6.029,-0.036,-0.001,-0.009,104.0,106.0,102.0,13.3,1505.3,327.0,-0.7,1.8,2470.321,13.33,0.036,268.4
2020-08-02T09:25:03,42.805,6.029,-0.049,-0.045,-0.04,105.0,106.0,101.0,13.4,1505.3,326.1,-0.7,1.8,2470.3,13.33,0.066,227.4
2020-08-02T09:28:03,42.805,6.029,-0.03,-0.044,0.002,105.0,105.0,102.0,13.4,1505.3,324.3,-0.7,1.8,2470.279,13.33,0.053,214.3
2020-08-02T09:31:03,42.805,6.029,-0.037,-0.016,-0.006,105.0,106.0,102.0,13.4,1505.3,323.5,-0.7,1.9,2470.292,13.33,0.04,246.6
2020-08-02T09:34:03,42.805,6.029,-0.031,-0.036,-0.022,105.0,106.0,102.0,13.3,1505.3,325.9,-0.7,1.8,2470.316,13.33,0.047,220.7
2020-08-02T09:37:03,42.805,6.029,-0.027,-0.035,-0.006,104.0,106.0,103.0,13.4,1505.3,325.0,-0.7,1.8,2470.256,13.33,0.044,217.7
2020-08-02T09:40:03,42.805,6.029,-0.016,-0.02,0.041,104.0,107.0,101.0,13.4,1505.3,325.4,-0.8,1.8,2470.317,13.33,0.025,218.7
2020-08-02T09:43:03,42.805,6.029,-0.019,-0.029,0.021,104.0,107.0,101.0,13.3,1505.3,326.6,-0.7,1.8,2470.318,13.33,0.034,213.2
2020-08-02T09:46:03,42.805,6.029,-0.037,-0.025,-0.031,104.0,106.0,101.0,13.4,1505.3,324.2,-0.7,1.8,2470.258,13.33,0.044,236.0
2020-08-02T09:49:03,42.805,6.029,-0.027,-0.023,-0.01,105.0,106.0,101.0,13.4,1505.3,325.5,-0.7,1.8,2470.296,13.33,0.035,229.6
2020-08-02T09:52:03,42.805,6.029,-0.037,-0.01,-0.04,106.0,105.0,101.0,13.4,1505.3,325.9,-0.7,1.8,2470.3,13.33,0.038,254.9